Tracking 28790 objects as of 19-Apr-2024
HD Live streaming from Space Station
objects crossing your sky now

COSMOS 1823 DEB

Track COSMOS 1823 DEB now!
10-day predictions


NORAD ID: 39824
Int'l Code: 1987-020EY
Perigee: 1,462.7 km
Apogee: 1,515.6 km
Inclination: 73.6 °
Period: 115.6 minutes
Semi major axis: 7860 km
RCS: 0.4688 m2 (medium)
Launch date: February 20, 1987
Source: Commonwealth of Independent States (former USSR) (CIS)
Launch site: PLESETSK MISSILE AND SPACE COMPLEX (PKMTR)

Note: This is SATELLITE DEBRIS
Your satellite tracking list
Your tracking list is empty




NASA's NSSDC Master Catalog

Two Line Element Set (TLE):
1 39824U 87020EY  24107.32583603  .00000353  00000-0  25713-2 0  9998
2 39824  73.6177 327.0720 0033647 176.1544 297.9320 12.45814010868483
Source of the keplerian elements: AFSPC